Aérodrome :
LOGIN :

S'inscrire | Disclaimer

   EN    FR    IT 

 










Légende :    VFR   VFR Marginal   IFR   IFR Intensif   IFR Très Intensif
Visi : 
Plafond : 
>= 8 km
>= 3000ft
5 à 8 km
1000 à 3000 ft
1500m à 5 km
500 à 1000 ft
800 à 1500m
200 à 500 ft
< 800m
< 200 ft
Symboles :   Orages  Brouillard  Fortes neiges  Fortes précipitations  Vent > 20 kt
SIGMETs :   Divers  Orages  Givrage  Turbulence  Onde Orograph.  Cendres Volcan.







- Altitude de l'aérodrome : 82 ft
- Code IATA : AAR


EKAH - Aarhus Tirstrup

DERNIER METAR :
  • 231920Z AUTO 28010KT 9999NDV NCD 09/06 Q1008

METARs EXPIRÉS :
  • 231850Z AUTO 27010KT 9999NDV NCD 09/06 Q1008
  • 231820Z AUTO 28010KT 9999NDV FEW220/// 09/06 Q1008
  • 231750Z AUTO 28010KT 9999NDV FEW033/// SCT210/// 10/06 Q1008
  • 231720Z AUTO 28009KT 9999NDV FEW033/// 10/06 Q1007
  • 231650Z AUTO 27012KT 9999NDV NCD 11/06 Q1007

TAF TAF EKAH
Valide du 23 à 18h jusqu'au 24 à 18h UTC


231705Z 2318/2418 29011KT 9999 SCT030
Pas de NOTAMs connus pour ce terrain.



MET'MAP, la Météo Aéronautique d'un coup d'oeil ! - Copyright ORBIFLY Décembre 2007 - Disclaimer

ORBIFLY MET'MAP TEAM :

Programmation & Développement : Alexandra Zaïnal
Conception & Développement : Baudouin d'Aumeries
Co-Programmation & Développement : Marc-Olivier Méhu
Soutien technique & logistique : Manuel Goepfert

Contact : metmap@orbifly.com




SOURCES & CREDITS :

   NOAA